TimeCDT,TemperatureF,Dew PointF,Humidity,Sea Level PressureIn,VisibilityMPH,Wind Direction,Wind SpeedMPH,Gust SpeedMPH,PrecipitationIn,Events,Conditions,WindDirDegrees,DateUTC
12:55 AM,43.0,33.1,68,30.37,10.0,ENE,4.6,-,N/A,,Clear,60,2013-10-14 05:55:00
1:55 AM,45.0,32.0,60,30.37,10.0,ENE,5.8,-,N/A,,Clear,70,2013-10-14 06:55:00
2:55 AM,45.0,32.0,60,30.35,10.0,East,6.9,-,N/A,,Clear,90,2013-10-14 07:55:00
3:55 AM,44.1,32.0,63,30.35,10.0,East,5.8,-,N/A,,Clear,80,2013-10-14 08:55:00
4:55 AM,43.0,32.0,65,30.35,10.0,East,5.8,-,N/A,,Clear,90,2013-10-14 09:55:00
5:55 AM,42.1,33.1,70,30.34,10.0,East,4.6,-,N/A,,Clear,90,2013-10-14 10:55:00
6:55 AM,42.1,33.1,70,30.33,10.0,East,6.9,-,N/A,,Clear,80,2013-10-14 11:55:00
7:55 AM,44.1,35.1,71,30.33,10.0,East,6.9,-,N/A,,Clear,100,2013-10-14 12:55:00
8:55 AM,50.0,37.0,61,30.32,10.0,ESE,12.7,-,N/A,,Clear,120,2013-10-14 13:55:00
9:55 AM,54.0,37.9,55,30.31,10.0,ESE,15.0,-,N/A,,Clear,120,2013-10-14 14:55:00
10:55 AM,59.0,37.9,46,30.29,10.0,ESE,12.7,-,N/A,,Clear,120,2013-10-14 15:55:00
11:55 AM,60.1,37.0,42,30.27,10.0,ESE,15.0,23.0,N/A,,Clear,120,2013-10-14 16:55:00
12:55 PM,64.0,39.0,40,30.22,10.0,SE,15.0,-,N/A,,Clear,140,2013-10-14 17:55:00
1:55 PM,66.9,39.0,36,30.17,10.0,SE,17.3,23.0,N/A,,Clear,130,2013-10-14 18:55:00
2:55 PM,66.9,39.0,36,30.14,10.0,SE,17.3,24.2,N/A,,Clear,130,2013-10-14 19:55:00
3:55 PM,68.0,39.0,35,30.11,10.0,SE,17.3,-,N/A,,Clear,130,2013-10-14 20:55:00
4:55 PM,66.0,39.0,37,30.09,10.0,SE,16.1,-,N/A,,Clear,130,2013-10-14 21:55:00
5:55 PM,63.0,39.9,43,30.07,10.0,SE,11.5,-,N/A,,Clear,130,2013-10-14 22:55:00
6:55 PM,62.1,39.9,44,30.05,10.0,SE,15.0,-,N/A,,Partly Cloudy,130,2013-10-14 23:55:00
7:55 PM,62.1,39.9,44,30.04,10.0,SE,15.0,-,N/A,,Mostly Cloudy,130,2013-10-15 00:55:00
8:55 PM,60.1,42.1,51,30.03,10.0,SE,15.0,-,N/A,,Partly Cloudy,140,2013-10-15 01:55:00
9:55 PM,57.9,44.1,60,30.02,10.0,SE,13.8,-,N/A,,Clear,140,2013-10-15 02:55:00
10:55 PM,59.0,46.9,64,30.00,10.0,SSE,15.0,-,N/A,,Mostly Cloudy,150,2013-10-15 03:55:00
11:55 PM,59.0,48.9,69,29.99,10.0,SSE,18.4,23.0,N/A,,Mostly Cloudy,150,2013-10-15 04:55:00